Regional Weather Roundup
Issued by NWS

Home | Current Version | Previous Version | Text Only | Print | Product List | Glossary On
Versions: 1 2 3 4 5 6 7 8 9 10 11 12 13 14 15 16 17 18 19 20 21 22 23 24 25 26 27 28 29 30 31 32 33 34 35 36 37 38 39 40 41 42 43 44 45 46 47 48 49 50
000
ASUS45 KBOU 200507
RWRCO

WEATHER ROUNDUP FOR COLORADO
NATIONAL WEATHER SERVICE DENVER/BOULDER CO
1000 PM MST THU JAN 19 2017

NOTE: "FAIR" INDICATES FEW OR NO CLOUDS BELOW 12000 FEET WITH NO
SIGNIFICANT WEATHER AND/OR OBSTRUCTIONS TO VISIBILITY.

COZ001>005-013-030-031-200600-
...NORTHWEST COLORADO...

CITY           SKY/WX    TMP DP  RH WIND       PRES   REMARKS
CRAIG          LGT SNOW  28  25  88 CALM      29.66F FOG
HAYDEN         CLOUDY    25  21  86 E3        29.65F
MEEKER         LGT SNOW  29  27  92 W3        29.65F FOG
MOUNT WERNER   NOT AVBL
STEAMBOAT SPGS CLOUDY    22  21  95 CALM      29.65F
WALDEN           N/A     25  18  74 S12       29.62F WCI  14
$$

COZ006>008-011-200600-
...WEST CENTRAL VALLEYS...

CITY           SKY/WX    TMP DP  RH WIND       PRES   REMARKS
GRAND JUNCTION CLOUDY    32  32 100 E3        29.69F
MONTROSE       FOG       31  31 100 CALM      29.71F VSB 3/4
EAGLE          LGT SNOW  27  25  93 CALM      29.69F FOG
RIFLE          LGT SNOW  31  31 100 CALM      29.68F FOG
DELTA          CLOUDY    36  34  94 NE3       29.71F
NUCLA          LGT SNOW  32  32 100 S3        29.73F
$$

COZ017>023-064>068-200600-
...SOUTHWEST COLORADO...

CITY           SKY/WX    TMP DP  RH WIND       PRES   REMARKS
DURANGO        LGT SNOW  30  28  92 E3        29.74F FOG
CORTEZ         LGT SNOW  32  32 100 CALM      29.73F FOG
PAGOSA SPRINGS FLURRIES  29  29 100 SW3       29.75S
TELLURIDE      NOT AVBL
WOLF CREEK PAS CLOUDY    14  14 100 S17G24    29.73F WCI  -3
$$

COZ009-010-012-014-032>034-037-058>063-200600-
...CENTRAL COLORADO...

CITY           SKY/WX    TMP DP  RH WIND       PRES   REMARKS
ASPEN          LGT SNOW  26  25  96 NW3       29.64F FOG
BUENA VISTA    CLOUDY    27  24  89 CALM      29.64F
COPPER MTN     LGT SNOW  23  18  80 SW8       29.65F WCI  14
BERTHOUD PASS  NOT AVBL
COTTONWOOD PAS FLURRIES  28  23  80 CALM      29.63F
GUNNISON       LGT SNOW  12  10  92 CALM      29.73F FOG
KREMMLING      LGT SNOW  19  14  79 CALM      29.69F
LEADVILLE      LGT SNOW  20  17  88 NE3       29.63F VSB 1
MONARCH PASS   HVY SNOW  16  12  86 SW13G28   29.74F VSB 1/4 WCI   2
SALIDA         CLOUDY    33  21  60 W5G17     29.70F WCI  29
SUNLIGHT       LGT SNOW  19  16  86 SW13G18   29.69S WCI   7
WILKERSON PASS HVY SNOW  21  19  93 SW14G20   29.64F VSB 1/4 WCI   8
$$

COZ069>075-200600-
...SAN LUIS VALLEY/SANGRE DE CRISTO MOUNTAINS...

CITY           SKY/WX    TMP DP  RH WIND       PRES   REMARKS
ALAMOSA        LGT SNOW  20  18  92 CALM      29.70F FOG
LA VETA PASS   LGT SNOW  21  18  86 NE32G45   29.63F WCI   2
SAGUACHE       LGT SNOW  23  21  93 E3        29.71F
$$

COZ035-036-038>040-200600-
...NORTHERN COLORADO FRONT RANGE...

CITY           SKY/WX    TMP DP  RH WIND       PRES   REMARKS
DENVER INTL AP FAIR      29  20  69 E7        29.50F WCI  22
DMNS CITY PARK   N/A     35  22  60 E6        29.51S WCI  30
AURORA         PTCLDY    31  20  64 SE7       29.51F WCI  24
FRONT RANGE AP NOT AVBL
ERIE MUNI ARPT FAIR      27  23  86 CALM      29.51F
BOULDER MUN AP FAIR      37  21  52 CALM      29.50F
CENTENNIAL     FAIR      33  20  58 SW3       29.51F
BROOMFIELD     PTCLDY    41  18  38 NW10      29.51F
FORT COLLINS   FAIR      28  21  74 N3        29.52F
LONGMONT       FAIR      32  24  73 CALM      29.53S
$$

COZ041-046-047-076>085-087-088-200600-
...PIKES PEAK/PALMER DIVIDE AND SOUTHERN FOOTHILLS...

CITY           SKY/WX    TMP DP  RH WIND       PRES   REMARKS
COLO. SPRINGS  MOCLDY    34  19  54 N9        29.51F WCI  27
A. F. ACADEMY  FAIR      37  17  44 VRB7      29.50F
SCHRIEVER AFB  NOT AVBL
ELLICOTT       FAIR     N/A N/A N/A E10       29.49F
FALCON         FAIR      37  13  36 W3        29.53F
FORT CARSON    MOCLDY    36  18  48 NW3       29.52S
LIMON          FAIR      20  19  96 N6        29.52F WCI  12
MONUMENT HILL  FAIR      30  19  64 SW7       29.54F WCI  23
TRINIDAD       FAIR      35  25  66 W7        29.50F WCI  29
$$

COZ042>045-048>051-090-091-200600-
...NORTHEAST COLORADO...

CITY           SKY/WX    TMP DP  RH WIND       PRES   REMARKS
GREELEY ARPT   FAIR      27  24  89 CALM      29.54S
AKRON          FAIR      34  22  61 CALM      29.52R
BURLINGTON     FOG       30  30 100 S10       29.53F VSB 1/4 WCI  21
WRAY           NOT AVBL
STERLING       FAIR      27  25  93 CALM      29.51S
HOLYOKE        FAIR      25  21  86 CALM      29.52F
FORT MORGAN    FAIR      31  24  75 N6        29.53S WCI  25
$$

COZ086-089-092>099-200600-
...SOUTHEAST COLORADO...

CITY           SKY/WX    TMP DP  RH WIND       PRES   REMARKS
PUEBLO         FAIR      37  27  67 VRB5      29.50S
LA JUNTA       FAIR      28  23  81 E7        29.50F WCI  21
LAMAR          FOG       30  29  96 E7        29.52F VSB 1/2 WCI  23
SPRINGFIELD      N/A     27  27 100 CALM      29.49F
$$



USA.gov is the U.S. government's official web portal to all federal, state and local government web resources and services.